Weather History for Salt Lake City, UT

Change the Weather History Date:

Tuesday, July 16, 2013

  Actual Average Record
Temperature  
Mean Temperature 87 °F 79 °F  
Max Temperature 98 °F 93 °F 103 °F (1960)
Min Temperature 75 °F 65 °F 51 °F (1904)
Degree Days  
Heating Degree Days 0 0  
Month to date heating degree days 0 0  
Since 1 June heating degree days 4 46  
Since 1 July heating degree days 0 0  
Cooling Degree Days 22 14  
Month to date cooling degree days 305 202  
Year to date cooling degree days 698 439  
Since 1 June cooling degree days 628 389  
Growing Degree Days 34 (Base 50)    
Moisture  
Dew Point 57 °F    
Average Humidity 46    
Maximum Humidity 69    
Minimum Humidity 22    
Precipitation  
Precipitation 0.00 in 0.02 in 0.94 in (1967)
Month to date precipitation 0.94 0.28  
Year to date precipitation 7.06 9.49  
Snow  
Snow 0.00 in 0.00 in - ()
Month to date snowfall 0.0 0.0  
Since 1 July snowfall 0.0 0.0  
Snow Depth 0.00 in    
Sea Level Pressure  
Sea Level Pressure 29.86 in    
Wind  
Wind Speed 8 mph (SE)    
Max Wind Speed 15 mph    
Max Gust Speed 20 mph    
Visibility 10 miles    
Events Rain , Thunderstorm    
T = Trace of Precipitation, MM = Missing Value Source: NWS Daily Summary

Daily Weather History Graph

Daily Weather History Graph

Search for Another Location

Airport:

Trip Planner

Search our weather history database for the weather conditions in past years. The results will help you decide how hot, cold, wet, or windy it might be!

Date:

Astronomy

Jul. 16, 2013 Rise Set
Actual Time 6:10 AM MDT 8:57 PM MDT
Civil Twilight 5:38 AM MDT 9:29 PM MDT
Nautical Twilight 4:57 AM MDT 10:09 PM MDT
Astronomical Twilight 4:11 AM MDT 10:55 PM MDT
Moon 2:42 PM MDT (7/16) 12:43 AM MDT (7/16)
Length of Visible Light 15h 51m
Length of Day
14h 46m
First Quarter, 57% of the Moon is Illuminated
Jul 16
First Quarter
Jul 22
Full
Jul 29
Last Quarter
Aug 6
New
Aug 14
First Quarter

Hourly Weather History & Observations

Time (MDT) Temp. Heat Index Dew Point Humidity Pressure Visibility Wind Dir Wind Speed Gust Speed Precip Events Conditions
12:44 AM 75.2 °F - 64.4 °F 69% 29.99 in 10.0 mi South 4.6 mph - N/A   Overcast
12:53 AM 75.9 °F - 64.0 °F 67% 29.78 in 10.0 mi Calm Calm - N/A   Overcast
1:53 AM 75.0 °F - 61.0 °F 62% 29.77 in 10.0 mi SSE 9.2 mph - N/A   Mostly Cloudy
2:53 AM 77.0 °F - 60.1 °F 56% 29.75 in 10.0 mi SSE 8.1 mph - N/A   Mostly Cloudy
3:53 AM 75.9 °F - 61.0 °F 60% 29.76 in 10.0 mi SSE 9.2 mph - N/A   Overcast
4:53 AM 77.0 °F - 59.0 °F 54% 29.76 in 10.0 mi SE 10.4 mph - N/A   Mostly Cloudy
5:53 AM 75.9 °F - 57.9 °F 54% 29.77 in 10.0 mi SE 9.2 mph - N/A   Scattered Clouds
6:53 AM 75.9 °F - 57.0 °F 52% 29.78 in 10.0 mi ESE 6.9 mph - N/A   Mostly Cloudy
7:53 AM 80.1 °F 80.2 °F 55.9 °F 43% 29.80 in 10.0 mi SE 10.4 mph - N/A   Mostly Cloudy
8:53 AM 81.0 °F 81.1 °F 57.9 °F 45% 29.81 in 10.0 mi SSE 8.1 mph - N/A   Mostly Cloudy
9:53 AM 84.0 °F 83.0 °F 55.9 °F 38% 29.82 in 10.0 mi SSE 12.7 mph - N/A   Mostly Cloudy
10:53 AM 84.9 °F 83.3 °F 54.0 °F 34% 29.85 in 10.0 mi SE 9.2 mph - N/A   Mostly Cloudy
11:53 AM 87.1 °F 85.3 °F 55.0 °F 33% 29.85 in 10.0 mi South 10.4 mph - N/A   Mostly Cloudy
12:53 PM 90.0 °F - 52.0 °F 27% 29.83 in 10.0 mi South 10.4 mph - N/A   Mostly Cloudy
1:53 PM 93.9 °F - 51.1 °F 23% 29.81 in 10.0 mi Variable 4.6 mph - N/A   Scattered Clouds
2:53 PM 95.0 °F - 50.0 °F 22% 29.78 in 10.0 mi Calm Calm - N/A   Scattered Clouds
3:53 PM 97.0 °F 94.6 °F 53.1 °F 23% 29.76 in 10.0 mi North 6.9 mph - N/A   Scattered Clouds
4:53 PM 96.1 °F - 51.1 °F 22% 29.76 in 10.0 mi NW 8.1 mph - N/A   Mostly Cloudy
5:53 PM 91.9 °F - 52.0 °F 26% 29.81 in 10.0 mi East 21.9 mph 27.6 mph N/A   Mostly Cloudy
6:09 PM 86.0 °F - 48.2 °F 27% 29.99 in 10.0 mi East 24.2 mph 39.1 mph 0.00 in Rain Light Rain
6:39 PM 86.0 °F - 48.2 °F 27% 29.99 in 10.0 mi East 25.3 mph 33.4 mph 0.00 in   Mostly Cloudy
6:53 PM 84.9 °F - 48.9 °F 29% 29.81 in 10.0 mi East 17.3 mph 25.3 mph 0.00 in Rain Light Rain
7:14 PM 82.4 °F - 51.8 °F 35% 30.02 in 10.0 mi ESE 19.6 mph 28.8 mph 0.00 in Rain , Thunderstorm Light Thunderstorms and Rain
7:33 PM 75.2 °F - 62.6 °F 65% 30.08 in 10.0 mi SE 23.0 mph 29.9 mph 0.00 in Rain , Thunderstorm Light Thunderstorms and Rain
7:53 PM 72.0 °F - 64.9 °F 78% 29.97 in 10.0 mi SE 18.4 mph - 0.02 in Rain , Thunderstorm Light Thunderstorms and Rain
7:58 PM 71.6 °F - 64.4 °F 78% 30.13 in 10.0 mi SE 15.0 mph - 0.00 in Rain Light Rain
8:53 PM 71.1 °F - 63.0 °F 75% 29.99 in 10.0 mi SE 10.4 mph - 0.12 in Rain Rain
9:53 PM 71.1 °F - 63.0 °F 75% 29.97 in 10.0 mi SSE 6.9 mph - 0.07 in   Mostly Cloudy
10:53 PM 72.0 °F - 62.1 °F 71% 29.92 in 10.0 mi South 12.7 mph - N/A   Mostly Cloudy
11:53 PM 72.0 °F - 61.0 °F 68% 29.89 in 10.0 mi SSE 11.5 mph - N/A   Mostly Cloudy